Hourly Data Report for October 17, 2014

All times are specified in Local Standard Time (LST). Add 1 hour to adjust for Daylight Saving Time where and when it is observed.

IQALUIT CLIMATE
NUNAVUT

63°44'50.000" N
68°32'40.000" W
33.50 m
2402592
71321
XFB

Download Data

Hourly Data (October 2014)
Hourly Data Report for October 17, 2014
Temp Definition
°C
Dew Point Temp Definition
°C
Rel Hum Definition
%
Wind Dir Definition
10's deg

Wind Spd Definition
km/h
Visibility Definition
km
Stn Press Definition
kPa
Hmdx Definition


Wind Chill Definition


Weather Definition


TIME
00:00 -0.4 -0.5 100 15 9   100.50   -4 LegendNANA
01:00 -0.5 -0.6 99 19 4   100.52   -2 LegendNANA
02:00 -1.1 -1.1 100 3 4   100.57   -2 LegendNANA
03:00 -4.0 -4.1 99 35 11   100.62   -8 LegendNANA
04:00 -3.7 -4.3 96 34 13   100.68   -9 LegendNANA
05:00 -4.7 -6.6 87 2 15   100.75   -10 LegendNANA
06:00 -4.8 -7.9 79 3 18   100.81   -11 LegendNANA
07:00 -5.8 -8.9 79 34 19   100.92   -12 LegendNANA
08:00 -5.6 -8.3 81 31 15   101.01   -11 LegendNANA
09:00 -6.8 -9.3 82 31 20   101.10   -14 LegendNANA
10:00 -7.0 -9.2 84 34 25   101.19   -15 LegendNANA
11:00 -7.0 -9.2 85 33 29   101.27   -15 LegendNANA
12:00 -6.8 -9.2 84 32 18   101.32   -13 LegendNANA
13:00 -6.6 -8.8 84 32 14   101.37   -12 LegendNANA
14:00 -5.1 -7.4 84 31 10   101.40   -9 LegendNANA
15:00 -4.3 -6.4 85 30 18   101.41   -10 LegendNANA
16:00 -4.0 -6.3 84 32 19   101.42   -10 LegendNANA
17:00 -3.9 -5.8 87 33 24   101.46   -11 LegendNANA
18:00 -4.7 -6.6 86 30 13   101.45   -10 LegendNANA
19:00 -7.7 -8.9 91 31 13   101.44   -13 LegendNANA
20:00 -7.6 -9.3 88 1 5   101.42   -10 LegendNANA
21:00 -7.7 -9.6 86 34 6   101.43   -11 LegendNANA
22:00 -8.8 -10.0 91 1 4   101.42   -11 LegendNANA
23:00 -10.2 -11.8 88 34 11   101.38   -16 LegendNANA

Notes on Data Quality.

Legend

  • E = Estimated
  • M = Missing
  • NA = Not Available
  • ‡ = Partner data that is not subject to review by the National Climate Archives
Date modified: